sat.trackr.live / text

‹ back to catalog

STARLINK-35908

NORAD 66639 · 2025-271Y

PAYLOAD ACTIVE UNKNOWN

§ Identity

Operator
Country
US
Launch date
2025-11-23
Launch site
AFWTR
Launch vehicle
Mass (kg)
RCS (m²)

Purposes: comms

External: N2YO · Heavens-Above · Gunter

§ Orbital elements

Epoch: 2026-05-25T05:24:54.761184Z

Period
94.11 min
Inclination
53.1565°
Eccentricity
0.0001145
Mean motion
15.30196532 rev/d
Perigee alt
474.4 km
Apogee alt
476.0 km
Semi-major
6,853.4 km
B*
8.9681e-4
RAAN
144.5019°
Arg perigee
97.7149°
Mean anomaly
262.3982°
Rev number
2,928

§ Raw data

STARLINK-359081 66639U 25271Y   26145.22563381  .00026293  00000+0  89681-3 0  99912 66639  53.1565 144.5019 0001145  97.7149 262.3982 15.30196532 29287

JSON: /api/v1/satellites/66639 · /tle

For live sub-satellite position, see the globe view (requires WebGL).

§ Visibility from observer

Set your observer location to see the next 7 days of passes ≥ 10°. The values pass through the URL so the page stays shareable.

No JS? Fill the form by hand. The geolocation button needs JavaScript.